CZ-6A DEB, 61473

Orbit data source: Space-Track

CZ-6A DEB, 61473 is space debris in LEO originally from a launch on Tue, 06 Aug 2024 UTC launched from the Taiyaun Space Center, China (TSC). Debris objects in space refer to the collection of defunct objects orbiting the Earth. Examples of debris include non-operational satellites, rocket bodies, and fragments generated from explosions, collisions, or faulty payload assembly.

Loading next visibility...
CZ-6A DEB details
Identifier
61473, 2024-140AAF
Orbit
LEO
Last TLE update1 day ago
Origin
Flag of CNCNSA (CN / PRC)
ManufacturerSAST
MissionSpacecraft
Bus & MotorUnknown
MassUnknown
Launch date (UTC)
2024-08-06 (6 months ago)
Launch vehicleUnknown
Launch site
Taiyaun Space Center, China (TSC)
Object type
Payload
Rocket body
Debris
Shape & HBRUnknown
Radar Cross SectionSmall (<0.1 m²)

Expand to show TLE details & history

TLE from 1 day ago
0 CZ-6A DEB
1 61473U 24140AAF 25035.23483961  .00147985  00000-0  95583-2 0  9999
2 61473  88.6720 321.3593 0179380  63.8403 298.1155 14.95334217 22725
Epoch: 2025-02-04T05:38Z
Definitive object data (Epoch: 2025-02-04T05:38:10.142Z)
Latitude0.00004°
Longitude102.174°
Altitude527.415 km
Speed7.63 km/s
True Right ascension21h 25m 26s
True Declination0° 00' 00"
Sunlit
Object was in daylight at TLE epoch
Visualization TLE readout
Latitude-85.82096°
Longitude83.59928°
Altitude711.548 km
Speed7.443 km/s
Apparent Right ascension20h 54m 20s
Apparent Declination-64° 04' 14"
Sunlit
Object is in daylight
Visualization observer readout
Local Sidereal Time08:58:52
Azimuth178.787° S
Elevation-65.836°
Doppler factor1
Orbital elements
Apogee altitude702.963 km
Perigee altitude453.398 km
Semi-major axis6,956.317 km
Eccentricity0.017938
Inclination88.672°
RAAN321.3593°
Arg. of periapsis63.8403°
True anomaly296.28347°
Mean anomaly298.1155°
Eccentric anomaly297.20139°
Mean motion3.74088 °/min
BSTAR0.0095583
Orbital period96.23 mins
Loading maneuver chart data...
Loading historical data...
Loading historical data...
Loading historical data...
Loading historical data...
Loading historical data...
Loading historical data...
Loading historical data...

CZ-6A DEB Visibility forecast

Observer location: undefined°, undefined

Span
Click to sort rows by Start time (UTC) header in descending order
Start Az.
Max El. time (UTC)
Max El. Az.
Max El.
End time (UTC)
End Az.
6 mins2025-02-05 07:53:37.185Z329.58° NNW2025-02-05 07:56:37.185Z263.176° W25.631°2025-02-05 07:59:37.185Z216.571° SW
4 mins2025-02-06 06:23:37.185Z56.711° ENE2025-02-06 06:24:37.185Z78.038° E21.089°2025-02-06 06:27:37.185Z132.165° SE
|